When you browse on this site, cookies collect data to enhance your experience and personalize the content and advertising you see.
Visit our Privacy Policy to learn more. By continuing to use the site, you agree to this use of cookies and data.
  • en Suisse
  • Liste des pays
  • À 7 jours
  • Température de l'eau
  • Carte météo
  • Widgets météo
  • user-avatar
    Se connecter

    Météo par heure à Landau in der Pfalz

    Ce jour, 28 Mai, Jeudi

    Heure Température Précipitation Vent Pression Humidité
    00:00 +15°C° 0 mm 1 m/s 757 mmHg 69%
    01:00 +14°C° 0 mm 0 m/s 757 mmHg 69%
    02:00 +15°C° 0 mm 1 m/s 757 mmHg 72%
    03:00 +15°C° 0 mm 1 m/s 757 mmHg 75%
    04:00 +15°C° 0 mm 1 m/s 756 mmHg 78%
    05:00 +15°C° 0 mm 2 m/s 757 mmHg 79%
    06:00 +14°C° 0 mm 3 m/s 757 mmHg 80%
    07:00 +14°C° 0 mm 4 m/s 757 mmHg 82%
    08:00 +15°C° 0 mm 4 m/s 757 mmHg 77%
    09:00 +17°C° 0 mm 4 m/s 757 mmHg 72%
    10:00 +17°C° 0 mm 4 m/s 757 mmHg 68%
    11:00 +19°C° 0 mm 4 m/s 757 mmHg 60%
    12:00 +20°C° 0 mm 4 m/s 757 mmHg 52%
    13:00 +21°C° 0 mm 4 m/s 756 mmHg 44%
    14:00 +21°C° 0 mm 4 m/s 756 mmHg 42%
    15:00 +21°C° 0 mm 4 m/s 756 mmHg 40%
    16:00 +21°C° 0 mm 4 m/s 756 mmHg 39%
    17:00 +20°C° 0 mm 4 m/s 756 mmHg 43%
    18:00 +19°C° 0 mm 4 m/s 756 mmHg 48%
    19:00 +18°C° 0 mm 3 m/s 755 mmHg 52%
    20:00 +16°C° 0 mm 3 m/s 756 mmHg 55%
    21:00 +14°C° 0 mm 3 m/s 756 mmHg 57%
    22:00 +13°C° 0 mm 2 m/s 756 mmHg 60%
    23:00 +12°C° 0 mm 2 m/s 756 mmHg 62%

    Demain, 29 Mai, Vendredi

    Heure Température Précipitation Vent Pression Humidité
    00:00 +12°C° 0 mm 2 m/s 756 mmHg 65%
    01:00 +10°C° 0 mm 2 m/s 756 mmHg 68%
    02:00 +10°C° 0 mm 2 m/s 756 mmHg 72%
    03:00 +9°C° 0 mm 2 m/s 756 mmHg 76%
    04:00 +9°C° 0 mm 2 m/s 756 mmHg 81%
    05:00 +10°C° 0 mm 2 m/s 755 mmHg 78%
    06:00 +11°C° 0 mm 3 m/s 755 mmHg 75%
    07:00 +12°C° 0 mm 3 m/s 755 mmHg 72%
    08:00 +14°C° 0 mm 4 m/s 755 mmHg 66%
    09:00 +15°C° 0 mm 4 m/s 755 mmHg 60%
    10:00 +18°C° 0 mm 4 m/s 754 mmHg 53%
    11:00 +19°C° 0 mm 5 m/s 754 mmHg 50%
    12:00 +20°C° 0 mm 5 m/s 754 mmHg 46%
    13:00 +21°C° 0 mm 5 m/s 753 mmHg 43%
    14:00 +21°C° 0 mm 5 m/s 753 mmHg 42%
    15:00 +21°C° 0 mm 5 m/s 752 mmHg 41%
    16:00 +21°C° 0 mm 5 m/s 752 mmHg 40%
    17:00 +20°C° 0 mm 4 m/s 752 mmHg 44%
    18:00 +19°C° 0 mm 4 m/s 752 mmHg 48%
    19:00 +18°C° 0 mm 4 m/s 751 mmHg 52%
    20:00 +17°C° 0 mm 4 m/s 752 mmHg 53%
    21:00 +14°C° 0 mm 4 m/s 752 mmHg 55%
    22:00 +13°C° 0 mm 4 m/s 752 mmHg 56%
    23:00 +12°C° 0 mm 4 m/s 752 mmHg 58%

    Après-demain, 30 Mai, Samedi

    Heure Température Précipitation Vent Pression Humidité
    00:00 +12°C° 0 mm 3 m/s 752 mmHg 60%
    01:00 +11°C° 0 mm 3 m/s 752 mmHg 62%
    02:00 +10°C° 0 mm 3 m/s 752 mmHg 65%
    03:00 +10°C° 0 mm 3 m/s 752 mmHg 68%
    04:00 +9°C° 0 mm 2 m/s 752 mmHg 71%
    05:00 +10°C° 0 mm 3 m/s 752 mmHg 69%
    06:00 +11°C° 0 mm 3 m/s 752 mmHg 67%
    07:00 +12°C° 0 mm 3 m/s 752 mmHg 65%
    08:00 +13°C° 0 mm 4 m/s 752 mmHg 58%
    09:00 +15°C° 0 mm 4 m/s 752 mmHg 52%
    10:00 +17°C° 0 mm 5 m/s 752 mmHg 45%
    11:00 +17°C° 0 mm 5 m/s 752 mmHg 44%
    12:00 +19°C° 0 mm 5 m/s 752 mmHg 43%
    13:00 +20°C° 0 mm 5 m/s 751 mmHg 42%
    14:00 +19°C° 0 mm 5 m/s 751 mmHg 44%
    15:00 +19°C° 0 mm 5 m/s 751 mmHg 45%
    16:00 +19°C° 0 mm 5 m/s 751 mmHg 47%
    17:00 +18°C° 0 mm 4 m/s 751 mmHg 50%
    18:00 +17°C° 0 mm 4 m/s 750 mmHg 54%
    19:00 +16°C° 0 mm 3 m/s 750 mmHg 57%
    20:00 +14°C° 0 mm 3 m/s 751 mmHg 61%
    21:00 +12°C° 0 mm 3 m/s 751 mmHg 64%
    22:00 +12°C° 0 mm 2 m/s 751 mmHg 68%
    23:00 +12°C° 0 mm 2 m/s 751 mmHg 71%

    31 Mai, Dimanche

    Heure Température Précipitation Vent Pression Humidité
    00:00 +10°C° 0 mm 2 m/s 751 mmHg 75%
    01:00 +10°C° 0 mm 2 m/s 751 mmHg 78%
    02:00 +9°C° 0 mm 2 m/s 751 mmHg 81%
    03:00 +9°C° 0 mm 2 m/s 751 mmHg 84%
    04:00 +8°C° 0 mm 2 m/s 751 mmHg 87%
    05:00 +9°C° 0 mm 2 m/s 751 mmHg 83%
    06:00 +12°C° 0 mm 2 m/s 751 mmHg 78%
    07:00 +12°C° 0 mm 3 m/s 751 mmHg 74%
    08:00 +13°C° 0 mm 3 m/s 750 mmHg 67%
    09:00 +16°C° 0 mm 3 m/s 750 mmHg 61%
    10:00 +18°C° 0 mm 4 m/s 750 mmHg 54%
    11:00 +19°C° 0 mm 4 m/s 750 mmHg 51%
    12:00 +19°C° 0 mm 4 m/s 750 mmHg 48%
    13:00 +20°C° 0 mm 4 m/s 750 mmHg 44%
    14:00 +20°C° 0 mm 4 m/s 750 mmHg 46%
    15:00 +21°C° 0 mm 4 m/s 750 mmHg 47%
    16:00 +21°C° 0 mm 4 m/s 750 mmHg 49%
    17:00 +20°C° 0 mm 4 m/s 750 mmHg 55%
    18:00 +18°C° 0 mm 4 m/s 750 mmHg 62%
    19:00 +17°C° 0 mm 4 m/s 750 mmHg 68%
    20:00 +15°C° 0 mm 4 m/s 750 mmHg 69%
    21:00 +14°C° 0 mm 3 m/s 750 mmHg 70%
    22:00 +13°C° 0 mm 3 m/s 750 mmHg 72%
    23:00 +12°C° 0 mm 3 m/s 750 mmHg 73%

    1 Juin, Lundi

    Heure Température Précipitation Vent Pression Humidité
    00:00 +13°C° 0 mm 2 m/s 750 mmHg 75%
    01:00 +13°C° 0 mm 2 m/s 750 mmHg 77%
    02:00 +13°C° 0 mm 2 m/s 750 mmHg 78%
    03:00 +13°C° 0 mm 2 m/s 750 mmHg 79%
    04:00 +13°C° 0 mm 2 m/s 749 mmHg 80%
    05:00 +13°C° 0 mm 2 m/s 749 mmHg 78%
    06:00 +13°C° 0 mm 3 m/s 749 mmHg 77%
    07:00 +14°C° 0 mm 3 m/s 749 mmHg 75%
    08:00 +17°C° 0 mm 3 m/s 749 mmHg 72%
    09:00 +18°C° 0 mm 3 m/s 749 mmHg 69%
    10:00 +19°C° 0 mm 4 m/s 749 mmHg 65%
    11:00 +20°C° 0 mm 4 m/s 749 mmHg 63%
    12:00 +21°C° 0 mm 4 m/s 748 mmHg 60%
    13:00 +23°C° 0 mm 4 m/s 748 mmHg 58%
    14:00 +23°C° 0 mm 4 m/s 748 mmHg 57%
    15:00 +25°C° 0 mm 4 m/s 747 mmHg 56%
    16:00 +25°C° 0 mm 4 m/s 747 mmHg 55%
    17:00 +23°C° 0 mm 4 m/s 747 mmHg 59%
    18:00 +22°C° 0 mm 4 m/s 747 mmHg 63%
    19:00 +22°C° 0 mm 4 m/s 747 mmHg 66%
    20:00 +20°C° 0 mm 4 m/s 747 mmHg 69%
    21:00 +19°C° 0 mm 3 m/s 747 mmHg 71%
    22:00 +18°C° 0 mm 3 m/s 747 mmHg 74%
    23:00 +17°C° 0 mm 3 m/s 747 mmHg 75%

    2 Juin, Mardi

    Heure Température Précipitation Vent Pression Humidité
    00:00 +17°C° 0 mm 3 m/s 747 mmHg 75%
    01:00 +16°C° 0 mm 3 m/s 747 mmHg 76%
    02:00 +14°C° 0 mm 3 m/s 747 mmHg 78%
    03:00 +14°C° 0 mm 3 m/s 747 mmHg 79%
    04:00 +13°C° 0 mm 3 m/s 746 mmHg 81%
    05:00 +14°C° 0 mm 3 m/s 746 mmHg 79%
    06:00 +14°C° 0 mm 3 m/s 746 mmHg 77%
    07:00 +15°C° 0 mm 4 m/s 747 mmHg 74%
    08:00 +18°C° 0 mm 4 m/s 747 mmHg 69%
    09:00 +19°C° 0 mm 4 m/s 747 mmHg 63%
    10:00 +21°C° 0 mm 5 m/s 747 mmHg 57%
    11:00 +22°C° 0 mm 5 m/s 746 mmHg 53%
    12:00 +23°C° 0 mm 5 m/s 746 mmHg 50%
    13:00 +25°C° 0 mm 5 m/s 746 mmHg 46%
    14:00 +25°C° 0 mm 5 m/s 745 mmHg 46%
    15:00 +26°C° 0 mm 5 m/s 745 mmHg 45%
    16:00 +26°C° 0 mm 5 m/s 744 mmHg 45%
    17:00 +25°C° 0 mm 5 m/s 744 mmHg 49%
    18:00 +23°C° 0 mm 4 m/s 744 mmHg 53%
    19:00 +22°C° 0 mm 4 m/s 744 mmHg 57%
    20:00 +20°C° 0 mm 3 m/s 744 mmHg 60%
    21:00 +19°C° 0 mm 3 m/s 745 mmHg 64%
    22:00 +18°C° 0 mm 3 m/s 745 mmHg 67%
    23:00 +17°C° 0 mm 3 m/s 745 mmHg 69%
    Voir plus